TimeEDT,TemperatureF,Dew PointF,Humidity,Sea Level PressureIn,VisibilityMPH,Wind Direction,Wind SpeedMPH,Gust SpeedMPH,PrecipitationIn,Events,Conditions,WindDirDegrees,DateUTC
12:56 AM,37.0,33.1,86,29.82,10.0,Calm,Calm,-,N/A,,Clear,0,2013-03-21 04:56:00
1:56 AM,36.0,32.0,86,29.77,10.0,Calm,Calm,-,N/A,,Clear,0,2013-03-21 05:56:00
2:56 AM,34.0,30.9,89,29.74,10.0,Calm,Calm,-,N/A,,Clear,0,2013-03-21 06:56:00
3:56 AM,33.1,30.0,89,29.72,10.0,Calm,Calm,-,N/A,,Clear,0,2013-03-21 07:56:00
4:56 AM,32.0,28.9,88,29.71,10.0,Calm,Calm,-,N/A,,Clear,0,2013-03-21 08:56:00
5:56 AM,34.0,28.0,79,29.73,10.0,Calm,Calm,-,N/A,,Clear,0,2013-03-21 09:56:00
6:56 AM,33.1,28.9,85,29.73,10.0,Calm,Calm,-,N/A,,Clear,0,2013-03-21 10:56:00
7:56 AM,35.1,28.9,78,29.75,10.0,WNW,6.9,-,N/A,,Clear,300,2013-03-21 11:56:00
8:56 AM,42.1,30.0,62,29.75,10.0,NW,12.7,-,N/A,,Clear,320,2013-03-21 12:56:00
9:56 AM,46.9,27.0,46,29.76,10.0,NW,15.0,-,N/A,,Clear,320,2013-03-21 13:56:00
10:56 AM,48.9,25.0,39,29.76,10.0,WNW,12.7,21.9,N/A,,Clear,300,2013-03-21 14:56:00
11:56 AM,48.9,24.1,38,29.75,10.0,NW,12.7,23.0,N/A,,Scattered Clouds,310,2013-03-21 15:56:00
12:56 PM,50.0,21.0,32,29.76,9.0,WNW,17.3,28.8,N/A,,Mostly Cloudy,300,2013-03-21 16:56:00
1:56 PM,51.1,19.9,29,29.76,9.0,NW,18.4,28.8,N/A,,Scattered Clouds,320,2013-03-21 17:56:00
2:56 PM,50.0,19.0,29,29.75,10.0,WNW,13.8,24.2,N/A,,Partly Cloudy,290,2013-03-21 18:56:00
3:56 PM,48.9,14.0,25,29.76,10.0,NW,17.3,28.8,N/A,,Clear,310,2013-03-21 19:56:00
4:56 PM,51.1,10.9,20,29.77,10.0,NW,19.6,26.5,N/A,,Clear,310,2013-03-21 20:56:00
5:56 PM,50.0,10.0,20,29.79,10.0,WNW,13.8,24.2,N/A,,Clear,300,2013-03-21 21:56:00
6:56 PM,46.9,10.0,22,29.83,10.0,NW,13.8,26.5,N/A,,Clear,310,2013-03-21 22:56:00
7:56 PM,44.1,12.0,27,29.86,10.0,NW,9.2,-,N/A,,Clear,310,2013-03-21 23:56:00
8:56 PM,42.1,14.0,32,29.90,10.0,NW,8.1,-,N/A,,Clear,320,2013-03-22 00:56:00
9:56 PM,39.9,12.9,33,29.94,10.0,NNW,11.5,19.6,N/A,,Clear,340,2013-03-22 01:56:00
10:56 PM,37.9,12.9,36,29.96,10.0,North,8.1,-,N/A,,Clear,350,2013-03-22 02:56:00
11:56 PM,36.0,10.9,36,29.98,10.0,North,8.1,-,N/A,,Clear,350,2013-03-22 03:56:00